Zurück zum Katalog

QIANFAN-219

AktivKommunikationPO
NORAD 69848·PAYLOAD·🇨🇳 China

Gestartet Jul 5, 2026 von Wenchang Space Launch Site

Loading…

Nächste Überflüge (nächste 24 Stunden)

TLE

AktuellSource: Space-Track

Epoche: Sep 14, 2026, 11:31 UTC

1 69848U 26155A   26257.48004966 -.01781364  00000-0 -28090+1 0  9994
2 69848  89.0073  54.3068 0040196  31.8106 328.5463 13.53788428  9929

Verfolge QIANFAN-219 in Echtzeit mit AllMySat

Download on the App Store